EW6143 Weather Reports


time (UTC)temp
F
wind
direction
speed
knots
gust
knots
rain 1hr
in
rain 24hr
in
rain mn
in
humidity
%
barometer
mb
20260902191536 97 138 5.2 10.4 0.00 0.00 0.00 44 1013.5
20260902183039 97 133 4.3 12.2 0.00 0.00 0.00 44 1014.2
20260902181536 96 211 3.5 7.8 0.00 0.00 0.00 45 1014.6
20260902180032 96 258 3.5 10.4 0.00 0.00 0.00 45 1015.2
20260902173035 94 173 2.6 10.4 0.00 0.00 0.00 50 1015.6
20260902171547 93 216 3.5 9.6 0.00 0.00 0.00 54 1015.9
20260902170034 93 279 4.3 7.8 0.00 0.00 0.00 52 1016.1
20260902133034 81 238 2.6 7.0 0.00 0.00 0.00 71 1016.4
20260902131541 80 300 3.5 7.0 0.00 0.00 0.00 72 1016.3
20260902130035 79 283 1.7 5.2 0.00 0.00 0.00 76 1016.3
20260902123042 77 244 0.9 3.5 0.00 0.00 0.00 77 1016.0
20260902121534 77 0 0.0 2.6 0.00 0.00 0.00 76 1015.9
20260902120032 78 236 0.0 2.6 0.00 0.00 0.00 76 1015.8
20260902114540 78 0 0.9 3.5 0.00 0.00 0.00 76 1015.9
20260902113037 78 234 0.0 1.7 0.00 0.00 0.00 75 1016.0
20260902111535 78 0 0.0 0.0 0.00 0.00 0.00 75 1016.0
20260902110042 79 0 0.0 0.0 0.00 0.00 0.00 74 1015.9
20260902104532 79 0 0.0 0.0 0.00 0.00 0.00 74 1015.8
20260902103034 79 0 0.0 1.7 0.00 0.00 0.00 73 1015.7
20260902100033 80 0 0.0 0.0 0.00 0.00 0.00 71 1015.8
20260902094535 80 0 0.0 0.0 0.00 0.00 0.00 70 1015.8
20260902090036 81 0 0.0 0.0 0.00 0.00 0.00 68 1015.5
20260902084535 82 0 0.0 0.0 0.00 0.00 0.00 67 1015.4
20260902083033 82 0 0.0 0.0 0.00 0.00 0.00 67 1015.5
20260902080037 83 0 0.9 2.6 0.00 0.00 0.00 66 1015.6
20260902074534 83 284 1.7 3.5 0.00 0.00 0.00 66 1015.5
20260902064534 84 311 2.6 7.0 0.00 0.00 0.00 64 1015.6
20260902061552 85 286 2.6 7.0 0.00 0.00 0.00 63 1015.6
20260902051533 86 319 1.7 5.2 0.00 0.00 0.00 63 1015.4
20260902043033 87 263 3.5 7.0 0.00 0.00 0.00 60 1015.3
20260902041539 88 295 2.6 10.4 0.00 0.00 0.00 58 1015.1
20260902031538 90 257 0.9 4.3 0.00 0.00 0.00 52 1014.6
20260902030035 91 275 1.7 5.2 0.00 0.00 0.00 51 1014.4
20260902023038 91 0 0.9 3.5 0.00 0.00 0.00 51 1014.0
20260902021535 92 290 1.7 5.2 0.00 0.00 0.00 51 1013.8
20260902020034 92 0 0.9 5.2 0.00 0.00 0.00 51 1013.6
20260902013034 93 282 1.7 6.1 0.00 0.00 0.00 49 1013.1
20260902011535 94 278 2.6 7.0 0.00 0.00 0.00 48 1013.1
20260902010034 95 286 1.7 3.5 0.00 0.00 0.00 44 1012.9
20260902004536 95 275 0.9 3.5 0.00 0.00 0.00 44 1012.8
20260902001553 96 310 0.9 3.5 0.00 0.00 0.00 43 1013.0
20260902000037 96 301 1.7 7.0 0.00 0.00 0.00 42 1013.1
20260901234533 97 261 3.5 8.7 0.00 0.00 0.00 41 1013.2
20260901231538 97 279 2.6 8.7 0.00 0.00 0.00 41 1013.4
20260901230038 97 264 1.7 7.0 0.00 0.00 0.00 41 1013.4
20260901224533 96 289 3.5 8.7 0.00 0.00 0.00 42 1013.4
20260901223041 97 285 2.6 7.0 0.00 0.00 0.00 41 1013.6
20260901221540 97 246 3.5 9.6 0.00 0.00 0.00 40 1013.5
20260901220033 98 297 4.3 8.7 0.00 0.00 0.00 40 1013.5
20260901214534 100 315 4.3 10.4 0.00 0.00 0.00 38 1013.7
20260901213033 101 307 3.5 9.6 0.00 0.00 0.00 37 1013.7
20260901211535 101 280 1.7 9.6 0.00 0.00 0.00 36 1013.8
20260901210034 101 300 3.5 12.2 0.00 0.00 0.00 37 1013.9
20260901204534 100 275 5.2 12.2 0.00 0.00 0.00 37 1013.9
20260901203037 99 261 3.5 9.6 0.00 0.00 0.00 40 1014.2
20260901201532 100 194 1.7 6.1 0.00 0.00 0.00 39 1014.5
20260901200039 98 279 3.5 7.8 0.00 0.00 0.00 42 1014.7
20260901194534 97 296 1.7 7.0 0.00 0.00 0.00 45 1014.9
20260901193036 99 152 2.6 7.8 0.00 0.00 0.00 42 1015.2